{"data":{"norad_id":57521,"intl_designator":"2023-115A","name":"STARLINK-30259","alt_names":[],"object_type":"PAYLOAD","status":"ACTIVE","operator":null,"country":"US","launch_date":"2023-08-08","launch_site_code":"AFWTR","launch_vehicle":null,"mission":null,"orbit_class":"UNKNOWN","rcs_meters":null,"size_class":null,"mass_kg":null,"dimensions":null,"purposes":["comms"],"wikipedia_slug":null,"has_3d_model":false,"image_url":null,"decayed_at":null,"tle_current":{"epoch":"2026-09-20T05:35:11.524128Z","epoch_age_seconds":151084,"freshness":"FRESH","line1":"1 57521U 23115A   26263.23277227 -.00000745  00000+0 -17550-4 0  9992","line2":"2 57521  43.0034 342.9655 0001546 264.0794  95.9881 15.27567311173322","mean_motion":15.27567311,"eccentricity":0.0001546,"inclination_deg":43.0034,"raan_deg":342.9655,"arg_perigee_deg":264.0794,"mean_anomaly_deg":95.9881,"bstar":-1.755e-5,"rev_number":17332,"period_min":94.267531756576,"perigee_km":482.02634648893,"apogee_km":484.14783697809,"semimajor_km":6861.2240917335,"source":"CELESTRAK","updated_at":"2026-09-21T09:00:33.636582Z"}}}